Voltar ao catálogo

SL-3 DEB

AtivoPO
NORAD 8110·DEBRIS·🇷🇺 Russia

Lançado Jul 11, 1975 de Plesetsk Cosmodrome

Loading…

Próximas Passagens (próximas 24 horas)

TLE

AtualizadoSource: Space-Track

Época: Sep 13, 2026, 20:50 UTC

1 08110U 75064D   26256.86854095  .00000107  00000-0  51414-4 0  9995
2 08110  81.3478  37.1688 0034248 116.2844 244.1854 14.11496774634053

Acompanhe SL-3 DEB em tempo real com AllMySat

Download on the App Store